Regional Weather Roundup
Issued by NWS

Home | Current Version | Previous Version | Graphics & Text | Print | Product List | Glossary On
Versions: 1 2 3 4 5 6 7 8 9 10 11 12 13 14 15 16 17 18 19 20 21 22 23 24 25 26 27 28 29 30 31 32 33 34 35 36 37 38 39 40 41 42 43 44 45 46 47 48 49 50
000
ASUS43 KDMX 231407
RWRIA

WEATHER ROUNDUP FOR IOWA
NATIONAL WEATHER SERVICE DES MOINES IA
900 AM CDT SAT MAY 23 2015

NOTE: "FAIR" INDICATES FEW OR NO CLOUDS BELOW 12,000 FEET WITH NO
SIGNIFICANT WEATHER AND/OR OBSTRUCTIONS TO VISIBILITY.

* - THESE STATIONS ARE NOT NWS STATIONS...THUS NOT UNDER NWS
QUALITY CONTROL.  THEY ALSO DO NOT REPORT WEATHER SUCH
AS PRECIPITATION OR FOG.

IAZ001>003-012>014-020>022-031>034-043>046-231500-
   NORTHWEST IOWA

CITY           SKY/WX    TMP DP  RH WIND       PRES   REMARKS
CARROLL *      CLOUDY    61  52  72 SE10      30.22F
CHEROKEE *     CLOUDY    61  52  72 SE9       30.20F
DENISON *      CLOUDY    61  54  77 SE10      30.18F
LE MARS *      CLOUDY    61  52  72 SE8       30.19F
ORANGE CITY *  MOSUNNY   59  50  72 SE6       30.19F
SHELDON *      CLOUDY    59  59 100 SE10      30.20F
SIOUX CITY     CLOUDY    60  51  72 S9        30.18F
SPENCER        CLOUDY    60  51  72 SE12      30.24S
STORM LAKE *   CLOUDY    61  50  67 SE12      30.21F
$$

IAZ055>058-069>071-079>083-090>094-231500-
   SOUTHWEST IOWA

CITY           SKY/WX    TMP DP  RH WIND       PRES   REMARKS
ATLANTIC *     CLOUDY    63  52  67 S8G15     30.21F
AUDUBON *      CLOUDY    61  54  77 SE7       30.22F
CLARINDA *     CLOUDY    59  55  88 SE9       30.24F
COUNCIL BLFS * PTSUNNY   59  57  94 S10       30.21R
CRESTON *      CLOUDY    63  54  72 SE12      30.23F
HARLAN  *      MOSUNNY   63  55  77 S12       30.23F
LAMONI         CLOUDY    63  54  72 SE6       30.24F
RED OAK *      CLOUDY    61  55  82 SE6       30.22S
SHENANDOAH *   CLOUDY    59  55  88 SE15      30.22S
$$

IAZ047>049-059>061-072>074-084-231500-
   CENTRAL IOWA

CITY           SKY/WX    TMP DP  RH WIND       PRES   REMARKS
AMES           CLOUDY    63  47  55 SE9       30.26F
ANKENY *       CLOUDY    64  52  63 SE8       30.26S
CHARITON *     PTSUNNY   64  54  68 SE10      30.26F
DES MOINES     PTSUNNY   63  52  67 SE8       30.26S
GRINNELL*      MOSUNNY   66  48  52 E7        30.28F
KNOXVILLE *    CLOUDY    63  50  63 SE8       30.26F
MARSHALLTOWN   MOSUNNY   65  48  54 E9        30.27F
PELLA *        MOSUNNY   66  55  68 SE5       30.29S
PERRY *        CLOUDY    61  52  72 SE8       30.24F
$$

IAZ004>006-015-016-023>025-035-036-231500-
   NORTH CENTRAL IOWA

CITY           SKY/WX    TMP DP  RH WIND       PRES   REMARKS
ALGONA *       CLOUDY    61  50  67 SE8       30.26S
CLARION *      CLOUDY    66  45  45 SE9       30.26F
ESTHERVILLE    CLOUDY    58  47  66 E13       30.25S
FORT DODGE *   CLOUDY    63  48  59 SE8       30.25F
MASON CITY     CLOUDY    63  45  51 E5        30.28S
FOREST CITY *  SUNNY     61  48  63 CALM      30.27S
IOWA FALLS *     N/A     66  45  45 E8        30.28F
$$

IAZ007>011-017>019-026>030-037>042-050>054-066-231500-
   NORTHEAST IOWA

CITY           SKY/WX    TMP DP  RH WIND       PRES   REMARKS
CEDAR RAPIDS   PTSUNNY   67  51  56 S7        30.29R
CHARLES CITY * CLOUDY    63  45  51 NE6       30.28S
CLINTON *      SUNNY     64  45  48 S7        30.34R
DECORAH *      CLOUDY    61  46  59 SW6       30.28S
DUBUQUE        MOSUNNY   62  44  51 S9        30.31R
MONTICELLO *   SUNNY     64  48  55 SE7       30.29S
OELWEIN *      PTSUNNY   61  50  67 S6        30.30R
WATERLOO       PTSUNNY   61  50  67 SW3       30.28R
$$

IAZ064-065-067-068-078-231500-
   EAST CENTRAL IOWA

CITY           SKY/WX    TMP DP  RH WIND       PRES   REMARKS
DAVENPORT      SUNNY     67  51  56 S10       30.31R
IOWA CITY      PTSUNNY   66  51  58 CALM      30.31S
MT. PLEASANT * MOSUNNY   68  52  56 SE8       30.31S
MUSCATINE *    SUNNY     66  54  63 CALM      30.31S
QUAD CITIES    SUNNY     68  53  58 SW5       30.30R
$$

IAZ062-063-075>077-085>089-095>099-231500-
   SOUTHEAST IOWA

CITY           SKY/WX    TMP DP  RH WIND       PRES   REMARKS
BURLINGTON     SUNNY     66  56  70 S6        30.31R
FAIRFIELD *    SUNNY     68  50  52 SE6       30.30S
FORT MADISON * MOSUNNY   66  55  68 SE6       30.31F
KEOKUK *       CLOUDY    66  54  63 SE6       30.30S
OSKALOOSA *      N/A     68  50  52 SE9       30.29S
CENTERVILLE *  LGT RAIN  61  61 100 SE8       30.28F
OTTUMWA        PTSUNNY   66  52  60 SE9       30.28F
WASHINGTON *   SUNNY     68  50  52 SE5       30.32S
$$

ABBREVIATIONS USED IN REMARKS
   TC - TEMPERATURES IN CELSIUS
  WCI - WIND CHILL INDEX
   HX - HEAT INDEX
  VSB - VISIBILITY
$$



USA.gov is the U.S. government's official web portal to all federal, state and local government web resources and services.